CW7625 Weather Reports


Display with metric or nautical units.
time (UTC)temp
F
wind
direction
speed
MPH
gust
MPH
rain 1hr
in
rain 24hr
in
rain mn
in
humidity
%
barometer
mb
20260831020112 83 70 0.0 0.0 0.00 0.00 0.00 60 1011.6
20260831015112 84 70 0.0 1.0 0.00 0.00 0.00 58 1011.4
20260831011112 89 70 0.0 1.0 0.00 0.00 0.00 48 1011.1
20260831010112 91 70 1.0 1.0 0.00 0.00 0.00 47 1011.1
20260831005112 92 70 0.0 2.0 0.00 0.00 0.00 42 1011.0
20260831004112 94 70 0.0 4.0 0.00 0.00 0.00 40 1011.1
20260831002112 96 61 2.0 7.0 0.00 0.00 0.00 38 1011.1
20260831001112 96 87 2.0 7.0 0.00 0.00 0.00 39 1011.1
20260831000120 97 26 3.0 10.0 0.00 0.00 0.00 38 1011.1
20260830235112 97 102 1.0 9.0 0.00 0.00 0.00 38 1011.0
20260830234112 98 88 4.0 11.0 0.00 0.00 0.00 37 1010.9
20260830231112 98 36 7.0 9.0 0.00 0.00 0.00 37 1010.8
20260830225112 99 80 2.0 5.0 0.00 0.00 0.00 37 1011.0
20260830223112 100 219 1.0 5.0 0.00 0.00 0.00 33 1011.0
20260830222112 100 196 1.0 5.0 0.00 0.00 0.00 33 1011.0
20260830221112 101 241 0.0 8.0 0.00 0.00 0.00 32 1011.1
20260830215112 102 213 3.0 7.0 0.00 0.00 0.00 30 1011.1
20260830214112 102 261 1.0 8.0 0.00 0.00 0.00 31 1011.2
20260830213112 102 178 2.0 7.0 0.00 0.00 0.00 34 1011.2
20260830212112 102 215 1.0 5.0 0.00 0.00 0.00 32 1011.4
20260830211112 101 253 2.0 7.0 0.00 0.00 0.00 35 1011.5
20260830205112 101 89 5.0 7.0 0.00 0.00 0.00 35 1011.8
20260830203112 101 204 3.0 8.0 0.00 0.00 0.00 37 1012.1
20260830201112 101 212 1.0 8.0 0.00 0.00 0.00 34 1012.5
20260830200112 101 180 2.0 6.0 0.00 0.00 0.00 34 1012.5
20260830195112 101 233 4.0 7.0 0.00 0.00 0.00 36 1012.6
20260830194112 100 286 4.0 8.0 0.00 0.00 0.00 38 1012.8
20260830193112 99 298 2.0 6.0 0.00 0.00 0.00 41 1012.8
20260830192112 99 56 1.0 7.0 0.00 0.00 0.00 42 1013.0
20260830191112 98 304 3.0 8.0 0.00 0.00 0.00 43 1013.1
20260830190112 98 223 6.0 9.0 0.00 0.00 0.00 44 1013.2
20260830185112 98 219 6.0 7.0 0.00 0.00 0.00 44 1013.3
20260830184112 98 196 0.0 9.0 0.00 0.00 0.00 46 1013.4
20260830183112 97 49 1.0 7.0 0.00 0.00 0.00 47 1013.5
20260830182112 96 67 1.0 5.0 0.00 0.00 0.00 49 1013.5
20260830180112 96 228 0.0 6.0 0.00 0.00 0.00 49 1013.8
20260830174112 95 222 1.0 5.0 0.00 0.00 0.00 55 1014.2
20260830173112 95 274 3.0 7.0 0.00 0.00 0.00 55 1014.4
20260830172112 95 214 7.0 7.0 0.00 0.00 0.00 52 1014.5
20260830170112 94 215 3.0 5.0 0.00 0.00 0.00 53 1014.7
20260830164112 92 220 3.0 7.0 0.00 0.00 0.00 54 1014.9
20260830163112 92 300 1.0 5.0 0.00 0.00 0.00 58 1014.9
20260830162112 91 240 2.0 4.0 0.00 0.00 0.00 60 1015.0
20260830161112 91 295 1.0 7.0 0.00 0.00 0.00 57 1015.1
20260830160113 90 5 2.0 4.0 0.00 0.00 0.00 58 1015.0
20260830155112 90 30 0.0 3.0 0.00 0.00 0.00 60 1015.1
20260830154112 89 222 1.0 4.0 0.00 0.00 0.00 61 1015.2
20260830153112 88 319 3.0 3.0 0.00 0.00 0.00 65 1015.4
20260830152112 87 273 2.0 3.0 0.00 0.00 0.00 64 1015.4
20260830151113 86 213 3.0 3.0 0.00 0.00 0.00 68 1015.4
20260830150112 85 213 3.0 4.0 0.00 0.00 0.00 68 1015.4
20260830145112 85 248 2.0 4.0 0.00 0.00 0.00 69 1015.5
20260830144112 84 225 0.0 5.0 0.00 0.00 0.00 71 1015.6
20260830142112 82 184 0.0 4.0 0.00 0.00 0.00 73 1015.5
20260830141112 80 61 1.0 4.0 0.00 0.00 0.00 76 1015.6
20260830140112 79 83 1.0 3.0 0.00 0.00 0.00 77 1015.5
20260830135112 77 78 2.0 4.0 0.00 0.00 0.00 78 1015.8
20260830134112 76 88 1.0 3.0 0.00 0.00 0.00 79 1015.6
20260830133113 75 65 2.0 3.0 0.00 0.00 0.00 80 1015.5
20260830132112 74 75 1.0 4.0 0.00 0.00 0.00 82 1015.4
20260830131112 73 67 2.0 3.0 0.00 0.00 0.00 83 1015.5
20260830125112 70 72 0.0 1.0 0.00 0.00 0.00 88 1015.3
20260830124113 68 72 0.0 2.0 0.00 0.00 0.00 89 1015.2
20260830122112 66 75 1.0 2.0 0.00 0.00 0.00 90 1015.0
20260830121112 65 75 2.0 3.0 0.00 0.00 0.00 90 1015.0
20260830120112 65 75 0.0 0.0 0.00 0.00 0.00 90 1014.8
20260830115112 65 75 0.0 0.0 0.00 0.00 0.00 89 1014.7
20260830114112 65 75 0.0 0.0 0.00 0.00 0.00 89 1014.5
20260830112113 65 75 0.0 0.0 0.00 0.00 0.00 90 1014.5
20260830111113 65 75 0.0 0.0 0.00 0.00 0.00 90 1014.4
20260830110112 65 75 0.0 0.0 0.00 0.00 0.00 90 1014.3
20260830105113 65 75 0.0 0.0 0.00 0.00 0.00 89 1014.4
20260830104113 65 75 0.0 0.0 0.00 0.00 0.00 89 1014.1
20260830103112 65 75 0.0 0.0 0.00 0.00 0.00 88 1014.0
20260830102112 65 75 0.0 0.0 0.00 0.00 0.00 89 1014.0
20260830101113 65 75 0.0 0.0 0.00 0.00 0.00 88 1013.8
20260830100113 66 75 0.0 0.0 0.00 0.00 0.00 88 1013.9
20260830095112 66 75 0.0 0.0 0.00 0.00 0.00 88 1014.1
20260830094113 66 75 0.0 0.0 0.00 0.00 0.00 87 1014.1
20260830093112 66 75 0.0 0.0 0.00 0.00 0.00 87 1014.0
20260830092113 66 75 0.0 0.0 0.00 0.00 0.00 87 1014.1
20260830091112 66 75 0.0 0.0 0.00 0.00 0.00 87 1014.1
20260830090112 66 75 0.0 0.0 0.00 0.00 0.00 86 1014.1
20260830085112 67 75 0.0 0.0 0.00 0.00 0.00 86 1014.2
20260830084113 67 75 0.0 0.0 0.00 0.00 0.00 86 1014.2
20260830083113 67 75 0.0 0.0 0.00 0.00 0.00 85 1014.1
20260830082113 68 75 0.0 0.0 0.00 0.00 0.00 85 1014.2
20260830081113 68 75 0.0 0.0 0.00 0.00 0.00 85 1014.2
20260830080112 68 75 0.0 0.0 0.00 0.00 0.00 84 1014.1
20260830075112 68 75 0.0 0.0 0.00 0.00 0.00 84 1014.1
20260830074113 68 75 0.0 0.0 0.00 0.00 0.00 83 1014.2
20260830072112 69 75 0.0 0.0 0.00 0.00 0.00 83 1014.3
20260830071113 69 75 0.0 0.0 0.00 0.00 0.00 82 1014.5
20260830070113 69 75 0.0 0.0 0.00 0.00 0.00 81 1014.5
20260830065112 70 75 0.0 0.0 0.00 0.00 0.00 81 1014.5
20260830064113 70 75 0.0 0.0 0.00 0.00 0.00 81 1014.4
20260830063113 70 75 0.0 0.0 0.00 0.00 0.00 80 1014.4
20260830062113 71 75 0.0 0.0 0.00 0.00 0.00 81 1014.3
20260830061113 71 75 0.0 0.0 0.00 0.00 0.00 82 1014.3
20260830060113 71 75 0.0 0.0 0.00 0.00 0.00 81 1014.2
20260830055113 71 75 0.0 0.0 0.00 0.00 0.00 81 1014.1
20260830054113 71 75 0.0 0.0 0.00 0.00 0.00 81 1014.0
20260830053113 72 75 0.0 0.0 0.00 0.00 0.00 80 1014.1
20260830052113 72 75 0.0 0.0 0.00 0.00 0.00 80 1014.0
20260830051113 72 75 0.0 0.0 0.00 0.00 0.00 80 1013.9
20260830050113 72 75 0.0 0.0 0.00 0.00 0.00 79 1013.9
20260830045113 73 75 0.0 0.0 0.00 0.00 0.00 79 1013.8
20260830044113 73 75 0.0 0.0 0.00 0.00 0.00 79 1013.9
20260830043113 73 75 0.0 0.0 0.00 0.00 0.00 78 1013.9
20260830042113 74 75 0.0 0.0 0.00 0.00 0.00 77 1013.9
20260830040113 74 75 0.0 0.0 0.00 0.00 0.00 75 1014.0
20260830035113 74 75 0.0 0.0 0.00 0.00 0.00 74 1013.8
20260830034113 75 75 0.0 0.0 0.00 0.00 0.00 74 1013.7
20260830033113 75 75 0.0 0.0 0.00 0.00 0.00 74 1013.7
20260830032113 76 75 0.0 0.0 0.00 0.00 0.00 73 1013.7
20260830031113 76 75 0.0 0.0 0.00 0.00 0.00 72 1013.6
20260830025113 77 75 0.0 0.0 0.00 0.00 0.00 73 1013.3
20260830024113 78 75 0.0 0.0 0.00 0.00 0.00 71 1013.2
20260830022113 79 75 0.0 1.0 0.00 0.00 0.00 69 1013.1